Weather in Santo Angelo

Brazil     28°18′09″S   54°15′34″W
temp.,
°C
wind,
m/s
gust,
m/s
humid.,
%
clouds,
%
prec.,
mm/h
press.,
hPa
HPBL,
m
3 december, fri
fri300:00+18ese613710 0.0 1012432
03:00+15ese511820 0.0 1011332
06:00+15ese49900 0.0 1011290
09:00+23e34670 0.0 1012675
12:00+30e12390 0.0 10101743
15:00+31se22300 0.0 10082236
18:00+29se23390 0.0 10081820
21:00+23ese34550 0.0 101058
4 december, sat
sat400:00+20ese6126623 0.0 1012397
03:00+18ese4107898 0.0 1012281
06:00+17ese488471 0.0 1013208
09:00+25ene3458100 0.0 1014597
12:00+30nne3341100 0.0 10131683
15:00+33ne123239 0.0 10112450
18:00+31ese343892 0.0 1010210
21:00+26se4114954 0.0 1012249
5 december, sun
sun500:00+23ese5116098 0.0 1013405
03:00+20se4107644 0.0 1013307
06:00+19ese4982100 0.0 1014250
09:00+25ese336078 0.0 1014482
12:00+31sse334288 0.0 10141533
15:00+33s443595 0.0 10112461
18:00+30sse694526 0.0 1010699
21:00+21se26773 1.0 1013153
6 december, mon
mon600:00+20ese512845 0.2 1014424
03:00+19se49916 0.2 1014349
06:00+18se510900 0.0 1015376
09:00+23se56650 0.0 1015793
12:00+28se55440 0.0 10141768
15:00+29sse66400 0.0 10132163
18:00+26sse810511 0.0 10131232
21:00+21ese814650 0.0 1015783
7 december, tue
tue700:00+19ese714750 0.0 1015663
03:00+17ese613800 0.0 1014634
06:00+17ese613770 0.0 1015580
09:00+22e78570 0.0 1015952
12:00+28e66390 0.0 10131754
15:00+30ese56280 0.0 10102407
18:00+29ese47320 0.0 1009591
21:00+23ese815480 0.0 1010592